Retour au catalogue

QIANFAN-101

ActifCommunicationsPO
NORAD 66043·PAYLOAD·🇨🇳 China

Lancé Oct 17, 2025 depuis Taiyuan Satellite Launch Center

Loading…

Prochains Passages (prochaines 24 heures)

TLE

FraisSource: Space-Track

Époque: Sep 14, 2026, 01:53 UTC

1 66043U 25233L   26257.07892415  .00000332  00000-0  13082-3 0  9997
2 66043  89.0052  30.3654 0014186 204.8490 155.2023 14.26858822 47301

Suivez QIANFAN-101 en temps réel avec AllMySat

Download on the App Store